19:55
Airports
History
Links
Donate
Help keep this website running!
PayPal
Bitcoin
This page is community maintained. The information is intended for PC simulator navigation or reference.
Always use approved charts for navigation.
SDWQ
Alenquer
Alenquer (SDWQ)
Alenquer, Para, Brazil (68200)
(U)
Lat/Lng:1° 55' 1" S / 54° 43' 22" W
-1.916944 / -54.722778
Elevation:102'ft / 31mMSL
ID / ICAO:SDWQ
Runways:1
Longest:10-28
Asphalt 998m / 3,274ft
Nearby Weather19:00 GMT 2017-12-12
Nearby weather at SBSN, SANTAREM located 35.3 nautical miles from SDWQ
Altimeter: 29.74
Visibility: 6.2 statute miles
Wind: 0 knots (from 000°)
Temp: 32°c / 90°f
Humidity: 59.1%

METAR: SBSN 121900Z 00000KT 9999 FEW030TCU BKN100 32/23 Q1007

(Powered by phpweather)
Runway 10 / 28
Dimensions:997.8 x 22.9m 3274' x 75'ft
Surface:Asphalt
Runway 10 [A]Runway 28 [B]
Heading:082°TH 262°TH
Lat:
Lng:
1° 55' 3.19"S
54° 43' 38.06"W
1° 54' 58.81"S
54° 43' 5.94"W
User Notes and Comments
1° 55' 1" S / 54° 43' 22" W
Distance To
Airport ID:
Nearby Airports
(C) SANTAREM 35.3 NM
SBSN ( WX ) S 187°
4 Fazenda Mangal 40.9 NM
SSRT NW 309°
4 Piquiatuba 43.5 NM
SNCJ S 178°
(C) Monte Alegre 45.1 NM
SNMA E 96°
4 Sao Jose 45.9 NM
SNSH S 180°
(C) Belterra 53.2 NM
SNEL SSW 193°
(C) Obidos 54.8 NM
SNTI W 273°
VFR Chart
Flight Planning at SkyVector.com